Bookmark and Share
Track history (hours):
 

Drifting buoy 62722

Last reported at 2014-Apr-24 20:00 UTC. Time now 2014-Apr-24 22:14 UTC.
Position N 30°30' W 014°18'.

Water temperature 18.8 ° C

NotesDate/timePositionNaut miles runAvg speedWind from/ knotsBaromVisibWave heightAir tempDewpointWater temp
2014-Apr-24 20:00N 30°30' W 014°18'4 1.4 18.8
2014-Apr-24 17:00N 30°31' W 014°14'1 0.6 18.9
2014-Apr-24 15:00N 30°32' W 014°13'2 1.8 18.9
2014-Apr-24 14:00N 30°34' W 014°13'0 0.0 18.8
2014-Apr-24 13:00N 30°34' W 014°13'0 0.1 18.8
2014-Apr-24 12:00N 30°34' W 014°13'1 0.6 18.8
2014-Apr-24 11:00N 30°34' W 014°14'0 0.1 18.7
2014-Apr-24 10:00N 30°34' W 014°14'2 0.5 18.7
2014-Apr-24 06:00N 30°32' W 014°13'0 0.4 18.7
2014-Apr-24 05:00N 30°32' W 014°13'1 1.4 18.8
2014-Apr-24 04:00N 30°31' W 014°12'0 0.0 18.8
2014-Apr-24 03:00N 30°31' W 014°12'7 1.0 18.8
2014-Apr-23 20:00N 30°30' W 014°03'1 0.9 19.2
2014-Apr-23 19:00N 30°31' W 014°03'0 0.0 19.3
2014-Apr-23 18:00N 30°31' W 014°03'2 1.0 19.5
2014-Apr-23 16:00N 30°32' W 014°02'2 0.7 19.4
2014-Apr-23 13:00N 30°35' W 014°02'0 0.2 19.5
2014-Apr-23 12:00N 30°35' W 014°02'0 0.0 19.2
2014-Apr-23 11:00N 30°35' W 014°02'0 0.2 19.0
2014-Apr-23 10:00N 30°35' W 014°02'1 1.1 18.8
2014-Apr-23 09:00N 30°34' W 014°03'1 0.3 18.7
2014-Apr-23 06:00N 30°33' W 014°03'2 0.9 18.6
2014-Apr-23 04:00N 30°32' W 014°01'1 1.4 18.7
2014-Apr-23 03:00N 30°31' W 013°60'0 0.0 18.8
2014-Apr-23 02:00N 30°31' W 013°60'5 1.6 18.8
2014-Apr-22 23:00N 30°30' W 013°54'1 0.6 18.9
2014-Apr-22 22:00N 30°30' W 013°55'4 1.0 18.9
2014-Apr-22 18:00N 30°33' W 013°51'1 0.6 19.9
2014-Apr-22 16:00N 30°34' W 013°51'2 1.1 20.9
2014-Apr-22 14:00N 30°36' W 013°52'0 0.0 19.9
2014-Apr-22 13:00N 30°36' W 013°52'1 0.6 19.9
2014-Apr-22 12:00N 30°36' W 013°53'0 0.5 19.6
2014-Apr-22 11:00N 30°36' W 013°53'1 0.5 19.2
2014-Apr-22 10:00N 30°35' W 013°53'2 1.9 18.7
2014-Apr-22 09:00N 30°33' W 013°53'0 0.1 18.5
2014-Apr-22 06:00N 30°33' W 013°53'2 0.6 18.4
2014-Apr-22 03:00N 30°32' W 013°51'1 0.6 18.4
2014-Apr-22 01:00N 30°31' W 013°50'6 1.9 18.5
2014-Apr-21 22:00N 30°32' W 013°43'0 0.0 18.5
2014-Apr-21 21:00N 30°32' W 013°43'2 2.0 18.5
2014-Apr-21 20:00N 30°33' W 013°42'4 2.0 18.6
2014-Apr-21 18:00N 30°37' W 013°41'0 0.0 18.7
2014-Apr-21 17:00N 30°37' W 013°41'0 0.0 18.7
2014-Apr-21 16:00N 30°37' W 013°41'1 0.7 18.8
2014-Apr-21 15:00N 30°38' W 013°41'1 0.8 18.7
2014-Apr-21 14:00N 30°38' W 013°42'0 0.5 18.7
2014-Apr-21 13:00N 30°38' W 013°42'2 0.4 18.7
2014-Apr-21 07:00N 30°35' W 013°42'2 1.1 18.6
2014-Apr-21 05:00N 30°34' W 013°39'2 0.8 18.6
2014-Apr-21 03:00N 30°34' W 013°38'0 0.0 18.6
2014-Apr-21 01:00N 30°34' W 013°38'4 1.9 18.6
2014-Apr-20 23:00N 30°35' W 013°33'1 1.2 18.7
2014-Apr-20 22:00N 30°36' W 013°32'3 2.6 18.7
2014-Apr-20 21:00N 30°38' W 013°30'0 0.0 18.7
2014-Apr-20 20:00N 30°38' W 013°30'2 1.7 18.6
2014-Apr-20 19:00N 30°40' W 013°31'0 0.0 18.7
2014-Apr-20 18:00N 30°40' W 013°31'4 1.2 18.7
2014-Apr-20 15:00N 30°43' W 013°32'1 0.3 18.8
2014-Apr-20 11:00N 30°43' W 013°34'1 1.4 18.8
2014-Apr-20 10:00N 30°41' W 013°34'0 0.0 18.8
2014-Apr-20 07:00N 30°41' W 013°34'3 1.4 18.8
2014-Apr-20 05:00N 30°40' W 013°31'1 0.6 18.8
2014-Apr-20 03:00N 30°41' W 013°29'0 0.0 18.8
2014-Apr-20 02:00N 30°41' W 013°29'4 0.9 18.8
2014-Apr-19 22:00N 30°42' W 013°25'4 4.1 18.8
2014-Apr-19 21:00N 30°46' W 013°24'2 1.9 18.9
2014-Apr-19 20:00N 30°48' W 013°24'0 0.0 18.9
2014-Apr-19 19:00N 30°48' W 013°24'0 0.0 19.1
2014-Apr-19 17:00N 30°48' W 013°24'3 1.3 19.1
2014-Apr-19 15:00N 30°50' W 013°27'1 0.3 19.2
2014-Apr-19 12:00N 30°49' W 013°28'0 0.4 19.1
2014-Apr-19 11:00N 30°49' W 013°29'0 0.4 19.1
2014-Apr-19 10:00N 30°49' W 013°28'1 0.8 19.0
2014-Apr-19 09:00N 30°48' W 013°29'1 0.7 18.8
2014-Apr-19 08:00N 30°48' W 013°28'1 1.0 18.9
2014-Apr-19 07:00N 30°48' W 013°27'0 0.0 18.9
2014-Apr-19 06:00N 30°48' W 013°27'1 1.4 18.9
2014-Apr-19 05:00N 30°48' W 013°25'0 0.3 18.9
2014-Apr-19 04:00N 30°48' W 013°25'0 0.1 19.0
2014-Apr-19 03:00N 30°48' W 013°25'4 1.1 19.0
2014-Apr-18 23:00N 30°51' W 013°21'3 1.4 19.0
2014-Apr-18 21:00N 30°53' W 013°21'0 0.0 19.0
2014-Apr-18 19:00N 30°53' W 013°21'1 0.4 19.1
2014-Apr-18 16:00N 30°54' W 013°22'1 1.0 19.3
2014-Apr-18 15:00N 30°55' W 013°22'1 0.4 19.1
2014-Apr-18 12:00N 30°55' W 013°24'0 0.0 19.1
2014-Apr-18 11:00N 30°55' W 013°24'0 0.5 19.0
2014-Apr-18 10:00N 30°54' W 013°24'1 0.8 18.9
2014-Apr-18 09:00N 30°55' W 013°23'1 0.3 18.9
2014-Apr-18 07:00N 30°55' W 013°22'0 0.0 18.8
2014-Apr-18 06:00N 30°55' W 013°22'0 0.1 18.8
2014-Apr-18 05:00N 30°55' W 013°22'2 2.0 18.8
2014-Apr-18 04:00N 30°56' W 013°20'0 0.0 18.8
2014-Apr-18 03:00N 30°56' W 013°20'0 0.0 18.8
2014-Apr-17 23:00N 30°56' W 013°20'1 0.9 19.4
2014-Apr-17 22:00N 30°57' W 013°20'0 0.0 19.5
2014-Apr-17 21:00N 30°57' W 013°20'3 1.5 19.5
2014-Apr-17 19:00N 31°00' W 013°19'0 0.0 19.7
2014-Apr-17 17:00N 31°00' W 013°19'1 1.0 19.9
2014-Apr-17 16:00N 31°01' W 013°20'2 0.8 20.0
2014-Apr-17 14:00N 31°02' W 013°21'0 0.0 19.9
2014-Apr-17 13:00N 31°02' W 013°21'0 0.2 19.8
2014-Apr-17 11:00N 31°02' W 013°22'1 0.6 19.2
2014-Apr-17 10:00N 31°03' W 013°22'1 0.7 18.9
2014-Apr-17 09:00N 31°03' W 013°22'0 0.0 18.8
2014-Apr-17 07:00N 31°03' W 013°22'0 0.4 18.8
2014-Apr-17 06:00N 31°04' W 013°21'1 0.7 18.8
2014-Apr-17 05:00N 31°04' W 013°22'0 0.3 18.8
2014-Apr-17 04:00N 31°04' W 013°22'0 0.0 18.9
2014-Apr-17 03:00N 31°04' W 013°22'1 0.2 18.9
2014-Apr-17 00:00N 31°05' W 013°21'0 0.0 19.0
2014-Apr-16 23:00N 31°05' W 013°21'1 0.8 19.1
2014-Apr-16 22:00N 31°06' W 013°21'2 2.1 19.1
2014-Apr-16 21:00N 31°07' W 013°20'0 0.0 19.3
2014-Apr-16 20:00N 31°07' W 013°20'0 0.0 19.4
2014-Apr-16 19:00N 31°07' W 013°20'1 0.7 19.5
2014-Apr-16 18:00N 31°08' W 013°20'0 0.0 19.5
2014-Apr-16 17:00N 31°08' W 013°20'2 0.6 19.4
2014-Apr-16 14:00N 31°09' W 013°20'1 0.6 19.2
2014-Apr-16 12:00N 31°10' W 013°22'0 0.1 19.0
2014-Apr-16 11:00N 31°10' W 013°22'2 0.4 19.0
2014-Apr-16 06:00N 31°12' W 013°23'1 0.4 18.6
2014-Apr-16 04:00N 31°12' W 013°24'1 0.2 18.6
2014-Apr-16 00:00N 31°11' W 013°24'0 0.0 18.7
2014-Apr-15 23:00N 31°11' W 013°24'0 0.0 18.8
2014-Apr-15 22:00N 31°11' W 013°24'1 0.9 18.8
2014-Apr-15 21:00N 31°12' W 013°23'2 1.5 18.8
2014-Apr-15 20:00N 31°13' W 013°23'1 0.3 18.9
2014-Apr-15 17:00N 31°14' W 013°23'1 0.6 19.4
2014-Apr-15 16:00N 31°14' W 013°24'1 0.9 19.2
2014-Apr-15 15:00N 31°15' W 013°23'2 2.2 19.3
2014-Apr-15 14:00N 31°16' W 013°26'0 0.0 19.0
2014-Apr-15 13:00N 31°16' W 013°26'0 0.0 18.8
2014-Apr-15 12:00N 31°16' W 013°26'1 0.7 18.6
2014-Apr-15 10:00N 31°16' W 013°27'1 0.9 18.5
2014-Apr-15 09:00N 31°16' W 013°28'0 0.0 18.5
2014-Apr-15 08:00N 31°16' W 013°28'0 0.5 18.4
2014-Apr-15 07:00N 31°16' W 013°29'0 0.5 18.4
2014-Apr-15 06:00N 31°16' W 013°29'0 0.0 18.5
2014-Apr-15 05:00N 31°16' W 013°29'0 0.1 18.5
2014-Apr-15 04:00N 31°16' W 013°29'0 0.2 18.5
2014-Apr-15 03:00N 31°16' W 013°29'2 0.5 18.6
2014-Apr-14 22:00N 31°18' W 013°31'   18.7

Dump ship's entire track history

sailing weather and tide predictions

Buoy 62722